Radiation Dose at Monitoring Post of Fukushima Daini Nuclear Power Station
Date,Time,MP-1(microSv/h),MP-2(microSv/h),MP-3(microSv/h),MP-4(microSv/h),MP-5(microSv/h),MP-6(microSv/h),MP-7(microSv/h),Wind Direction,Wind Velocity(m/s),Rain
2018/08/21,00:00,0.322,0.201,0.331,0.317,0.288,0.161,0.098,south,4.8,No
2018/08/21,00:10,0.326,0.200,0.328,0.315,0.291,0.161,0.098,south,5.1,No
2018/08/21,00:20,0.323,0.201,0.329,0.316,0.291,0.160,0.098,south,2.2,No
2018/08/21,00:30,0.322,0.202,0.329,0.318,0.287,0.161,0.097,south,3.0,No
2018/08/21,00:40,0.325,0.201,0.326,0.314,0.292,0.162,0.099,south,3.4,No
2018/08/21,00:50,0.322,0.202,0.331,0.315,0.290,0.160,0.099,south,4.0,No
2018/08/21,01:00,0.321,0.202,0.331,0.319,0.288,0.161,0.097,south,2.9,No
2018/08/21,01:10,0.326,0.201,0.328,0.316,0.291,0.161,0.100,south-southwest,2.1,No
2018/08/21,01:20,0.323,0.203,0.330,0.317,0.291,0.160,0.099,south-southwest,0.8,No
2018/08/21,01:30,0.324,0.202,0.331,0.319,0.288,0.162,0.098,-,CALM,No
2018/08/21,01:40,0.326,0.201,0.329,0.316,0.291,0.162,0.099,south-southwest,1.1,No
2018/08/21,01:50,0.322,0.203,0.331,0.317,0.291,0.161,0.099,south-southwest,2.8,No
2018/08/21,02:00,0.323,0.200,0.331,0.319,0.290,0.162,0.099,south,3.0,No
2018/08/21,02:10,0.326,0.202,0.330,0.317,0.293,0.162,0.100,south,2.5,No
2018/08/21,02:20,0.324,0.202,0.332,0.318,0.292,0.161,0.099,south,3.6,No
2018/08/21,02:30,0.326,0.202,0.329,0.319,0.289,0.162,0.100,south,3.9,No
2018/08/21,02:40,0.325,0.203,0.331,0.315,0.294,0.161,0.099,south,3.5,No
2018/08/21,02:50,0.321,0.201,0.331,0.319,0.291,0.160,0.099,south,3.6,No
2018/08/21,03:00,0.326,0.203,0.329,0.318,0.288,0.162,0.099,south,4.6,No
2018/08/21,03:10,0.325,0.202,0.331,0.315,0.292,0.161,0.099,south,3.3,No
2018/08/21,03:20,0.324,0.202,0.329,0.319,0.291,0.160,0.099,south,2.5,No
2018/08/21,03:30,0.326,0.202,0.330,0.318,0.289,0.162,0.099,south,2.2,No
2018/08/21,03:40,0.324,0.202,0.332,0.317,0.294,0.161,0.099,south,2.4,No
2018/08/21,03:50,0.323,0.203,0.329,0.319,0.292,0.161,0.099,south,3.4,No
2018/08/21,04:00,0.325,0.204,0.332,0.316,0.291,0.162,0.099,south-southwest,3.7,No
2018/08/21,04:10,0.325,0.202,0.331,0.318,0.294,0.161,0.100,south-southwest,3.9,No
2018/08/21,04:20,0.325,0.204,0.328,0.320,0.291,0.162,0.099,southwest,2.2,No
2018/08/21,04:30,0.327,0.203,0.332,0.316,0.291,0.163,0.100,south-southwest,2.7,No
2018/08/21,04:40,0.324,0.203,0.329,0.319,0.293,0.162,0.099,south-southwest,2.8,No
2018/08/21,04:50,0.326,0.202,0.331,0.317,0.290,0.162,0.100,south-southwest,2.3,No
2018/08/21,05:00,0.325,0.203,0.330,0.315,0.290,0.161,0.100,south,2.2,No
2018/08/21,05:10,0.324,0.204,0.329,0.320,0.291,0.161,0.100,south,2.3,No
2018/08/21,05:20,0.328,0.203,0.333,0.316,0.291,0.162,0.100,south,2.1,No
2018/08/21,05:30,0.326,0.204,0.331,0.317,0.294,0.161,0.100,south-southwest,1.1,No
2018/08/21,05:40,0.324,0.204,0.330,0.321,0.291,0.162,0.099,west-southwest,0.6,No
2018/08/21,05:50,0.328,0.202,0.333,0.317,0.289,0.163,0.100,northwest,0.6,No
2018/08/21,06:00,0.324,0.204,0.330,0.318,0.292,0.161,0.101,east-northeast,0.8,No
2018/08/21,06:10,0.325,0.202,0.330,0.320,0.293,0.163,0.100,north,2.7,No
2018/08/21,06:20,0.327,0.201,0.332,0.315,0.290,0.162,0.101,north-northeast,2.6,No
2018/08/21,06:30,0.325,0.204,0.329,0.318,0.292,0.160,0.101,north,2.1,No
2018/08/21,06:40,0.323,0.204,0.331,0.319,0.293,0.161,0.100,north,1.7,No
2018/08/21,06:50,0.326,0.200,0.332,0.317,0.291,0.163,0.099,north-northwest,1.2,No
2018/08/21,07:00,0.325,0.202,0.327,0.316,0.288,0.161,0.099,north,0.7,No
2018/08/21,07:10,0.323,0.204,0.327,0.319,0.293,0.161,0.100,-,CALM,No
2018/08/21,07:20,0.326,0.201,0.331,0.318,0.292,0.163,0.100,southwest,1.2,No
2018/08/21,07:30,0.327,0.201,0.333,0.316,0.290,0.161,0.100,south-southwest,1.3,No
2018/08/21,07:40,0.324,0.201,0.330,0.315,0.288,0.160,0.100,south-southwest,1.9,No
2018/08/21,07:50,0.322,0.201,0.328,0.316,0.288,0.161,0.100,south,3.2,No
2018/08/21,08:00,0.321,0.200,0.327,0.315,0.289,0.162,0.099,south,4.0,No
2018/08/21,08:10,0.320,0.200,0.329,0.315,0.292,0.161,0.100,south,4.6,No
2018/08/21,08:20,0.322,0.199,0.330,0.316,0.291,0.160,0.099,south,4.9,No
2018/08/21,08:30,0.320,0.200,0.329,0.316,0.289,0.160,0.099,south,5.5,No
2018/08/21,08:40,0.320,0.199,0.326,0.315,0.288,0.160,0.098,south,4.6,No
2018/08/21,08:50,0.321,0.199,0.326,0.316,0.291,0.159,0.098,south,6.5,No
2018/08/21,09:00,0.321,0.200,0.325,0.317,0.290,0.161,0.098,south,6.4,No
2018/08/21,09:10,0.320,0.200,0.329,0.315,0.288,0.160,0.098,south-southeast,5.9,No
2018/08/21,09:20,0.322,0.200,0.330,0.316,0.289,0.160,0.098,south,7.4,No
2018/08/21,09:30,0.320,0.200,0.330,0.315,0.288,0.160,0.098,south,9.0,No
2018/08/21,09:40,0.320,0.200,0.327,0.317,0.287,0.159,0.098,south,9.8,No
2018/08/21,09:50,0.321,0.200,0.327,0.316,0.290,0.160,0.097,south,10.0,No
2018/08/21,10:00,0.322,0.200,0.327,0.315,0.290,0.160,0.098,south,10.6,No
2018/08/21,10:10,0.322,0.200,0.325,0.315,0.288,0.160,0.097,south,10.6,No
2018/08/21,10:20,0.321,0.199,0.327,0.314,0.286,0.161,0.097,south,10.6,No
2018/08/21,10:30,0.321,0.201,0.328,0.315,0.286,0.160,0.097,south,10.3,No
2018/08/21,10:40,0.321,0.199,0.331,0.315,0.288,0.161,0.097,south,11.7,No
2018/08/21,10:50,0.321,0.201,0.329,0.315,0.289,0.159,0.097,south,11.7,No
2018/08/21,11:00,0.323,0.201,0.329,0.316,0.288,0.159,0.097,south,12.0,No
2018/08/21,11:10,0.321,0.201,0.329,0.315,0.290,0.160,0.097,south,11.1,No
2018/08/21,11:20,0.322,0.200,0.328,0.314,0.290,0.161,0.098,south,11.2,No
2018/08/21,11:30,0.323,0.201,0.330,0.317,0.290,0.160,0.097,south,10.9,No
2018/08/21,11:40,0.323,0.202,0.327,0.316,0.290,0.161,0.098,south,11.1,No
2018/08/21,11:50,0.324,0.201,0.328,0.316,0.288,0.161,0.097,south,10.0,No
2018/08/21,12:00,0.325,0.201,0.327,0.316,0.290,0.161,0.097,south,10.1,No
2018/08/21,12:10,0.325,0.200,0.330,0.316,0.290,0.160,0.097,south,11.8,No
2018/08/21,12:20,0.324,0.201,0.330,0.314,0.289,0.160,0.098,south,10.1,No
2018/08/21,12:30,0.323,0.200,0.328,0.316,0.287,0.160,0.098,south,11.2,No
2018/08/21,12:40,0.323,0.200,0.328,0.317,0.288,0.160,0.097,south,11.1,No
2018/08/21,12:50,0.324,0.201,0.330,0.316,0.289,0.161,0.098,south,11.8,No
2018/08/21,13:00,0.324,0.201,0.328,0.316,0.289,0.161,0.098,south,11.7,No
2018/08/21,13:10,0.324,0.202,0.330,0.316,0.289,0.160,0.098,south,11.4,No
2018/08/21,13:20,0.323,0.201,0.330,0.316,0.288,0.160,0.098,south,12.5,No
2018/08/21,13:30,0.323,0.201,0.330,0.318,0.290,0.160,0.098,south,14.0,No
2018/08/21,13:40,0.322,0.199,0.330,0.315,0.288,0.160,0.098,south,13.1,No
2018/08/21,13:50,0.324,0.200,0.328,0.315,0.288,0.160,0.098,south,12.2,No
2018/08/21,14:00,0.323,0.200,0.329,0.316,0.289,0.160,0.098,south,13.1,No
2018/08/21,14:10,0.323,0.200,0.329,0.316,0.288,0.161,0.098,south,15.3,No
2018/08/21,14:20,0.325,0.201,0.328,0.314,0.290,0.159,0.097,south,15.3,No
2018/08/21,14:30,0.323,0.202,0.328,0.315,0.290,0.160,0.098,south,14.0,No
2018/08/21,14:40,0.325,0.201,0.327,0.317,0.290,0.161,0.097,south,12.3,No
2018/08/21,14:50,0.324,0.201,0.328,0.315,0.289,0.160,0.098,south,12.8,No
2018/08/21,15:00,0.324,0.201,0.328,0.314,0.289,0.161,0.097,south,13.9,No
2018/08/21,15:10,0.323,0.202,0.328,0.315,0.289,0.160,0.097,south,13.4,No
2018/08/21,15:20,0.322,0.201,0.326,0.316,0.289,0.160,0.096,south,12.5,No
2018/08/21,15:30,0.322,0.201,0.327,0.315,0.290,0.160,0.097,south,13.1,No
2018/08/21,15:40,0.323,0.201,0.326,0.315,0.289,0.161,0.097,south,12.2,No
2018/08/21,15:50,0.322,0.199,0.328,0.314,0.289,0.160,0.098,south,12.6,No
2018/08/21,16:00,0.323,0.200,0.327,0.314,0.289,0.160,0.099,south,13.3,No
2018/08/21,16:10,0.323,0.200,0.326,0.315,0.289,0.161,0.098,south,12.2,No
2018/08/21,16:20,0.321,0.200,0.329,0.314,0.288,0.160,0.098,south,11.5,No
2018/08/21,16:30,0.322,0.199,0.325,0.314,0.289,0.159,0.097,south,10.9,No
2018/08/21,16:40,0.322,0.198,0.328,0.314,0.290,0.160,0.097,south-southwest,9.3,No
2018/08/21,16:50,0.323,0.200,0.326,0.318,0.287,0.162,0.097,south,10.0,No
2018/08/21,17:00,0.321,0.200,0.327,0.319,0.288,0.159,0.098,south,7.9,No
2018/08/21,17:10,0.321,0.199,0.326,0.318,0.289,0.159,0.098,south-southwest,6.1,No
2018/08/21,17:20,0.321,0.198,0.326,0.316,0.289,0.159,0.098,south-southwest,4.9,No
2018/08/21,17:30,0.321,0.200,0.326,0.314,0.288,0.159,0.098,south-southwest,7.6,No
2018/08/21,17:40,0.321,0.200,0.332,0.313,0.287,0.159,0.098,south-southwest,10.3,No
2018/08/21,17:50,0.327,0.202,0.331,0.314,0.287,0.160,0.097,south,10.0,No
2018/08/21,18:00,0.326,0.202,0.331,0.313,0.287,0.160,0.097,south-southwest,11.2,No
2018/08/21,18:10,0.323,0.202,0.327,0.318,0.287,0.160,0.098,south-southwest,11.5,No
2018/08/21,18:20,0.322,0.200,0.327,0.319,0.287,0.160,0.098,south-southwest,11.7,No
2018/08/21,18:30,0.323,0.199,0.326,0.316,0.289,0.161,0.099,south-southwest,12.3,No
2018/08/21,18:40,0.321,0.199,0.328,0.315,0.292,0.160,0.098,south-southwest,11.5,No
2018/08/21,18:50,0.324,0.202,0.332,0.314,0.291,0.159,0.098,south-southwest,12.6,No
2018/08/21,19:00,0.326,0.202,0.331,0.314,0.288,0.160,0.097,south-southwest,11.8,No
2018/08/21,19:10,0.325,0.200,0.328,0.320,0.288,0.160,0.097,south-southwest,12.6,No
2018/08/21,19:20,0.321,0.199,0.327,0.318,0.287,0.160,0.098,south-southwest,12.2,No
2018/08/21,19:30,0.321,0.199,0.326,0.317,0.291,0.161,0.098,south-southwest,10.9,No
2018/08/21,19:40,0.321,0.201,0.329,0.316,0.291,0.160,0.097,south-southwest,12.5,No
2018/08/21,19:50,0.325,0.202,0.333,0.314,0.290,0.160,0.097,south-southwest,11.2,No
2018/08/21,20:00,0.325,0.201,0.331,0.314,0.288,0.159,0.097,south-southwest,10.9,No
2018/08/21,20:10,0.323,0.200,0.329,0.320,0.287,0.161,0.099,south-southwest,13.7,No
2018/08/21,20:20,0.321,0.199,0.326,0.318,0.290,0.160,0.098,south-southwest,11.4,No
2018/08/21,20:30,0.321,0.201,0.327,0.316,0.291,0.161,0.098,south-southwest,11.5,No
2018/08/21,20:40,0.327,0.201,0.331,0.315,0.289,0.160,0.098,south-southwest,11.5,No
2018/08/21,20:50,0.325,0.200,0.331,0.313,0.286,0.159,0.097,south-southwest,11.8,No
2018/08/21,21:00,0.323,0.200,0.328,0.317,0.287,0.160,0.098,south-southwest,12.0,No
2018/08/21,21:10,0.321,0.199,0.326,0.319,0.291,0.161,0.098,south-southwest,10.9,No
2018/08/21,21:20,0.322,0.201,0.328,0.317,0.290,0.161,0.098,south-southwest,10.1,No
2018/08/21,21:30,0.326,0.202,0.332,0.315,0.289,0.160,0.097,south-southwest,10.3,No
2018/08/21,21:40,0.324,0.201,0.331,0.314,0.288,0.159,0.097,south-southwest,11.2,No
2018/08/21,21:50,0.323,0.199,0.328,0.316,0.288,0.161,0.097,south-southwest,12.9,No
2018/08/21,22:00,0.321,0.200,0.327,0.320,0.292,0.161,0.098,south-southwest,13.1,No
2018/08/21,22:10,0.324,0.202,0.330,0.319,0.289,0.161,0.097,south-southwest,12.6,No
2018/08/21,22:20,0.327,0.200,0.333,0.316,0.289,0.160,0.097,south-southwest,11.5,No
2018/08/21,22:30,0.324,0.199,0.330,0.315,0.288,0.161,0.098,south,10.7,No
2018/08/21,22:40,0.321,0.200,0.328,0.316,0.292,0.160,0.098,south,10.9,No
2018/08/21,22:50,0.322,0.203,0.327,0.317,0.289,0.160,0.097,south-southwest,10.7,No
2018/08/21,23:00,0.327,0.201,0.332,0.315,0.289,0.161,0.097,south-southwest,10.0,No
2018/08/21,23:10,0.326,0.201,0.332,0.315,0.287,0.161,0.097,south-southwest,9.0,No
2018/08/21,23:20,0.322,0.202,0.329,0.315,0.292,0.160,0.098,south-southwest,8.7,No
2018/08/21,23:30,0.322,0.202,0.327,0.319,0.290,0.160,0.097,south-southwest,9.0,No
2018/08/21,23:40,0.325,0.201,0.331,0.319,0.288,0.162,0.097,south-southwest,8.8,No
2018/08/21,23:50,0.326,0.200,0.332,0.317,0.287,0.161,0.097,south-southwest,8.1,No
